Regional Weather Roundup
Issued by NWS

Home | Current Version | Previous Version | Text Only | Print | Product List | Glossary On
Versions: 1 2 3 4 5 6 7 8 9 10 11 12 13 14 15 16 17 18 19 20 21 22 23 24 25 26 27 28 29 30 31 32 33 34 35 36 37 38 39 40 41 42 43 44 45 46 47 48 49 50
037
ASUS44 KLIX 231101
RWRLA
LOUISIANA WEATHER ROUNDUP
NATIONAL WEATHER SERVICE NEW ORLEANS LA
600 AM CDT WED APR 23 2014

NOTE: "FAIR" INDICATES FEW OR NO CLOUDS BELOW 12,000 FEET WITH NO
      SIGNIFICANT WEATHER AND/OR OBSTRUCTIONS TO VISIBILITY.
      SKY/WX - SKY CONDITION AND SIGNIFICANT WEATHER.
      TMP - AIR TEMPERATURE.    DP   - DEWPOINT TEMPERATURE.
      RH  - RELATIVE HUMIDITY.  PRES - PRESSURE.
      HX  - HEAT INDEX.         WCI  - WIND CHILL INDEX.

*  THESE STATIONS ARE NOT NWS OR FAA STATIONS AND ARE NOT UNDER
   NWS QUALITY CONTROL.

LAZ040-048-061>063-065-066-069-231200-
SOUTHEAST LOUISIANA

CITY           SKY/WX    TMP DP  RH WIND       PRES   REMARKS
N.O. AUDUBON   NOT AVBL
N.O. INTL ARPT CLEAR     61  61 100 CALM      29.94S
N.O. LAKEFRONT CLEAR     67  64  90 N7        29.95R
N.O. DOWNTOWN* FAIR      66  61  82 CALM      29.95S
SLIDELL        CLEAR     58  55  90 CALM      29.94R
BATON ROUGE    CLEAR     59  55  87 CALM      29.95R
BOOTHVILLE     FOG       63  63 100 W3        29.95R VSB 1
BELLE CHASSE   FOG       57  55  94 CALM      29.94S VSB 3/4
BOGALUSA*        N/A     56  53  91 CALM      29.96R
GALLIANO*      SUNNY     54  53  97 CALM      29.94S
NEW ROADS*     NOT AVBL
GONZALES*      FAIR      58  58 100 CALM      29.95R
HAMMOND*       NOT AVBL
HOUMA*         CLEAR     59  57  94 NW5       29.95R FOG
PORT FOURCHON* SUNNY     68  66  94 CALM      29.96R

$$

LAZ041-044-053-054-231200-
SOUTHWEST LOUISIANA

CITY           SKY/WX    TMP DP  RH WIND       PRES   REMARKS
LAKE CHARLES   FOG       66  66 100 CALM      29.94S VSB 1/4
LAFAYETTE      CLEAR     60  58  92 CALM      29.96R
PATTERSON      CLEAR     59  59 100 CALM      29.98S
SALT POINT       N/A     66  64  93 CALM      29.94R
NEW IBERIA     CLEAR     60  57  89 CALM      29.96R
CHENAULT AIRPK NOT AVBL

$$

LAZ027-028-231200-
CENTRAL LOUISIANA

CITY           SKY/WX    TMP DP  RH WIND       PRES   REMARKS
FORT POLK      CLEAR     58  56  93 CALM      29.96R
ALEXANDRIA INT CLEAR     57  56  96 CALM      29.95R FOG
ALEXANDRIA     CLEAR     54  52  93 CALM      29.96S FOG

$$

LAZ001-002-231200-
NORTHWEST LOUISIANA

CITY           SKY/WX    TMP DP  RH WIND       PRES   REMARKS
SHREVEPORT     CLEAR     58  56  93 CALM      29.94S
BARKSDALE AFB  NOT AVBL
DTN SHREVEPORT MOCLDY    61  59  93 SE3       29.94S

$$

LAZ014-016-231200-
NORTHEAST LOUISIANA

CITY           SKY/WX    TMP DP  RH WIND       PRES   REMARKS
MONROE         FOG       56  54  93 CALM      29.98R VSB 1/4
TALLULAH       FOG       55  55 100 CALM      29.97S VSB 1/4

$$




USA.gov is the U.S. government's official web portal to all federal, state and local government web resources and services.